Powrót do katalogu

CZ-6A DEB

AktywnyPO
NORAD 64634·DEBRIS·🇨🇳 China

Wystrzelony Aug 6, 2024 z Taiyuan Satellite Launch Center

Loading…

Następne Przeloty (najbliższe 24 godziny)

TLE

ŚwieżeSource: Space-Track

Epoka: Sep 14, 2026, 11:00 UTC

1 64634U 24140ADY 26257.45858570  .00001562  00000-0  78151-3 0  9997
2 64634  88.9884 264.8756 0082597 298.3992  60.8887 14.14559774103751

Śledź CZ-6A DEB w czasie rzeczywistym z AllMySat

Download on the App Store